{"data":{"norad_id":49299,"epoch":"2026-09-19T23:01:23.591712Z","epoch_age_seconds":73787,"freshness":"FRESH","line1":"1 49299U 21090W   26262.95930083 -.00000004  00000+0 -41901-4 0  9994","line2":"2 49299  87.9142 255.5346 0001991  91.4476 268.6885 13.20773340243537","mean_motion":13.2077334,"eccentricity":0.0001991,"inclination_deg":87.9142,"raan_deg":255.5346,"arg_perigee_deg":91.4476,"mean_anomaly_deg":268.6885,"bstar":-4.1901e-5,"rev_number":24353,"period_min":109.02703411624,"perigee_km":1180.2623686013,"apogee_km":1183.2727225913,"semimajor_km":7559.9045455963,"source":"CELESTRAK","updated_at":"2026-09-20T09:00:44.672747Z"}}